Terminal Aerodrome Forecast
Issued by NWS Cleveland, OH

Home | Current Version | Previous Version | Text Only | Print | Product List | Glossary Off
Versions: 1 2 3 4 5 6 7 8 9 10 11 12 13 14 15 16 17 18 19 20 21 22 23 24 25

000
FTUS41 KCLE 271323 AAA
TAFYNG
TAF AMD
KYNG 271323Z 2713/2812 24008KT P6SM BKN025 OVC050
     FM271900 24008KT P6SM BKN050
     FM280000 VRB03KT P6SM OVC100
     FM280600 08005KT 5SM -RA BR OVC012
     FM280800 04005KT 3SM -RA BR OVC007=

USA.gov is the U.S. government's official web portal to all federal, state and local government web resources and services.